Regional Weather Roundup
Issued by NWS Charleston, SC

Current Version | Previous Version | Graphics & Text | Print | Product List | Glossary On
Versions: 1 2 3 4 5 6 7 8 9 10 11 12 13 14 15 16 17 18 19 20 21 22 23 24 25 26 27 28 29 30 31 32 33 34 35 36 37 38 39 40 41 42 43 44 45 46 47 48 49 50
222
ASUS42 KCHS 232230
RWRCHS

REGIONAL WEATHER ROUNDUP
NATIONAL WEATHER SERVICE CHARLESTON SC
600 PM EDT SAT SEP 23 2017

NOTE: "FAIR" INDICATES FEW OR NO CLOUDS BELOW 12,000 FEET WITH NO
SIGNIFICANT WEATHER AND/OR OBSTRUCTIONS TO VISIBILITY.

NOT ALL STATIONS ARE QUALITY CONTROLLED. USE DATA WITH CAUTION...
ESPECIALLY DEWPOINT OBSERVATIONS.

SCZ027-030-031-034>040-042>050-232300-
...SOUTHEAST SOUTH CAROLINA...

CITY           SKY/WX    TMP DP  RH WIND       PRES   REMARKS
N CHARLESTON   MOSUNNY   84  67  56 E13       29.99R
WATERFRONT PRK   N/A     82  70  66 E9        29.83F
JOHNS ISLAND   FAIR      82  70  65 E10       29.99R
PINOPOLIS        N/A     84  70  61 CALM      29.91F
MONCKS CORNER  FAIR      84  63  48 SE5       29.99R
SUMMERVILLE    MOCLDY    84  66  54 CALM      29.99S
BEAUFORT MCAS  SUNNY     83  71  67 E9        29.98R
BEAUFORT ARPT  FAIR      81  68  65 E10G16    29.98S
HILTON HEAD IS SUNNY     81  73  78 E8        29.99R
WALTERBORO     CLEAR     82  68  61 SE6       29.99R
ALLENDALE      NOT AVBL

...SOUTHERN MIDLANDS AND PEE DEE...

CITY           SKY/WX    TMP DP  RH WIND       PRES   REMARKS
GEORGETOWN     FAIR      81  68  65 E7        30.01S
KINGSTREE      FAIR      82  64  54 CALM      29.99S
ORANGEBURG     SUNNY     85  64  49 E7        29.99S
BARNWELL       FAIR      88  66  48 E8        29.99R HX  90
AIKEN          MOCLDY    82  64  54 NE3       30.03S
MANNING        FAIR      84  66  54 MISG      29.99S
COLUMBIA       MOSUNNY   88  61  40 E7        29.98S
SUMTER         SUNNY     87  60  38 E8        29.98R
FLORENCE       MOSUNNY   86  60  41 E9        30.00S
MYRTLE BEACH   CLOUDY    81  72  74 SE6       30.02R
N MYRTLE BEACH MOSUNNY   81  70  69 SE6       30.00R

$$

GAZ063-065-086>088-099>101-113>116-118-119-134>141-150-232300-
...SOUTHEAST GEORGIA...

CITY           SKY/WX    TMP DP  RH WIND       PRES   REMARKS
SAVANNAH ARPT  MOSUNNY   85  67  54 E12       29.98R
HUNTER AAF     SUNNY     83  69  63 E12       29.96R
FORT STEWART   CLOUDY    80  71  72 CALM      29.95F
STATESBORO     PTSUNNY   85  64  49 CALM      29.98R
SYLVANIA       PTCLDY    84  74  71 CALM      29.99S HX  91
CLAXTON        MOCLDY    82  71  69 E3        29.98S

...CSRA...CENTRAL AND FAR SOUTHEAST GEORGIA...

CITY           SKY/WX    TMP DP  RH WIND       PRES   REMARKS
THOMSON        MOSUNNY   85  65  50 SE5       30.04S
AUGUSTA-BUSH   MOSUNNY   89  65  44 SE5       29.97S HX  91
AUGUSTA-DANIEL PTSUNNY   88  62  41 SE3       30.00R
SWAINSBORO     FAIR      84  68  58 E3        29.99R
VIDALIA        MOSUNNY   84  68  58 E8        29.98R
EASTMAN        FAIR      89  49  25 E8        29.99S
HAZLEHURST     FAIR      79  69  73 CALM      29.97F
ALMA           CLOUDY    79  69  71 CALM      29.96S
WAYCROSS       RAIN      82  70  65 E12       29.96R
JESUP          NOT AVBL
BAXLEY         FAIR      73  73 100 CALM      29.97S
BRUNSWICK      PTSUNNY   79  70  73 NE14      29.98R
SAINT SIMONS   CLOUDY    82  73  74 NE13G22   29.96R

$$

SCZ027-028-034-036>038-045-046-048>050-GAZ119-141-232300-
...LAKE AND SUPPLEMENTAL COASTAL OBSERVATIONS...

STATION/POSITION TIME  TEMP    WIND        PRES    WAVE   SWELL
                       AIR SEA DIR/SP/G            HT/PER HT/PER/DIR
                 (UTC) (F)     (DEG/KT/KT) (MB)    (FT/S) (FT/S/D)
WINYAH BAY       2045   80     100/  7     1016.0
LAKE MURRAY      2120   86      70/  1/  5 1014.9S
ACE BASIN NERRS  2045   87      70/  4     1015.0
FORT PULASKI     2148   80 81   80/ 15/ 18 1015.7R
SAPELO ISLAND    2100   82        CALM     1015.0

$$

ANZ835-935-AMZ111-154-330-350-352-354-370-450-454-472-232300-
...C-MAN AND BUOY OBSERVATIONS...

STATION/POSITION TIME  TEMP    WIND        PRES    WAVE   SWELL
                       AIR SEA DIR/SP/G            HT/PER HT/PER/DIR
                 (UTC) (F)     (DEG/KT/KT) (MB)    (FT/S) (FT/S/D)
BUOY 41004       2200   80 82   50/ 14/ 17 1014.8
BUOY 41008       2150   80 81   60/ 17/ 19 1014.2R   6/15   3/ 20/15
FOLLY BEACH CMAN 2200   80      80/ 12/ 14 1016.2R
CAPERS NEARSHORE NOT AVBL
FRIPP NEARSHORE  2108   81      70/ 14/ 19 1020.9F


STATION/POSITION TIME  TEMP    WIND        PRES    WAVE   SWELL
                       AIR SEA DIR/SP/G            HT/PER HT/PER/DIR
                 (UTC) (F)     (DEG/KT/KT) (MB)    (FT/S) (FT/S/D)
5E ST. MARYS GA  2200      82                N/A     5/12   2/110/12
FRYING PAN BUOY  2200   80 82   50/ 12/ 16 1015.5
BUOY 41025       2150   75 76   20/ 12/ 14 1016.2S   6/12   7/150/12
CAPE LOOKOUT NC  2200   77      80/ 10/ 10 1016.2R
BUOY 41002       2150   79 80   50/ 21/ 25 1013.1F  10/15   8/130/15
BUOY 41010       2150           60/ 16/ 19 1012.7R  14/14  13/14
ST AUGUSTINE FL  2200   81 83   40/ 19/ 20 1013.0F


$$




USA.gov is the U.S. government's official web portal to all federal, state and local government web resources and services.